{"data":{"norad_id":52992,"epoch":"2026-05-25T02:41:22.534368Z","epoch_age_seconds":55522,"freshness":"FRESH","line1":"1 52992U 22076G   26145.11206637  .00000459  00000+0  46945-4 0  9997","line2":"2 52992  53.2133 121.0567 0001280  70.6785 289.4345 15.08838912214245","mean_motion":15.08838912,"eccentricity":0.000128,"inclination_deg":53.2133,"raan_deg":121.0567,"arg_perigee_deg":70.6785,"mean_anomaly_deg":289.4345,"bstar":4.6945e-5,"rev_number":21424,"period_min":95.437623496285,"perigee_km":538.86122543138,"apogee_km":540.6322036623,"semimajor_km":6917.8837145468,"source":"CELESTRAK","updated_at":"2026-05-25T13:38:17.274762Z"}}